^^
Saratoga-Weather Station Historical Data
Daily Summary for July 24, 2020 Units:  English    Metric   Both
Daily Weekly Monthly Yearly Custom
  High: Low: Average:
Temperature: 86.9 °F 59.2 °F 73.9 °F
Dew Point: 59 °F 50.5 °F 54.7 °F
Humidity: 80% 32% 54%
Wind Speed: 12.1mph 0mph 1.9mph
Wind Gust: 15mph - -
Wind- - East
Pressure: 30.2 in 30 in -
Precipitation: 0 in    
Historical Graphs
 
 
Tabular Data for July 24, 2020
Time Temperature Dew Point Pressure Wind Wind Speed Wind Gust Humidity Rainfall Rate (Hourly) solar
00:04 64.8 °F 54.3 °F 30.2 in Calm     69% 0 in 0 W/m2
00:09 64.8 °F 54.7 °F 30.2 in Calm     70% 0 in 0 W/m2
00:14 64.6 °F 54.5 °F 30.2 in Calm     70% 0 in 0 W/m2
00:19 64.4 °F 54.9 °F 30.2 in East 0.9 mph 2 mph 71% 0 in 0 W/m2
00:29 64.2 °F 55 °F 30.2 in Calm   1 mph 72% 0 in 0 W/m2
00:34 64.2 °F 54.7 °F 30.2 in Calm   2 mph 71% 0 in 0 W/m2
00:39 64.2 °F 55 °F 30.2 in Calm     72% 0 in 0 W/m2
00:44 64.2 °F 55.4 °F 30.2 in Calm   2 mph 73% 0 in 0 W/m2
00:49 64.2 °F 55 °F 30.2 in Calm   2 mph 72% 0 in 0 W/m2
00:54 64 °F 55.2 °F 30.2 in East 0.9 mph 1 mph 73% 0 in 0 W/m2
00:59 64 °F 55.2 °F 30.2 in East 0.9 mph 1 mph 73% 0 in 0 W/m2
01:04 64 °F 55.2 °F 30.2 in Calm   1 mph 73% 0 in 0 W/m2
01:09 63.9 °F 55 °F 30.2 in East 0.9 mph 2 mph 73% 0 in 0 W/m2
01:14 63.7 °F 55.2 °F 30.2 in East 0.9 mph 3 mph 74% 0 in 0 W/m2
01:19 63.7 °F 55.2 °F 30.2 in Calm     74% 0 in 0 W/m2
01:24 63.9 °F 55 °F 30.2 in Calm   3 mph 73% 0 in 0 W/m2
01:29 63.9 °F 55 °F 30.2 in Calm   2 mph 73% 0 in 0 W/m2
01:34 63.9 °F 55.4 °F 30.2 in Calm   1 mph 74% 0 in 0 W/m2
01:39 63.9 °F 55.4 °F 30.1 in Calm   2 mph 74% 0 in 0 W/m2
01:44 63.7 °F 55.2 °F 30.1 in Calm   1 mph 74% 0 in 0 W/m2
01:49 63.7 °F 55.2 °F 30.1 in SSE 0.9 mph 1 mph 74% 0 in 0 W/m2
01:54 63.3 °F 54.9 °F 30.1 in Calm     74% 0 in 0 W/m2
01:59 63.1 °F 55 °F 30.1 in Calm   2 mph 75% 0 in 0 W/m2
02:04 63 °F 54.9 °F 30.2 in Calm     75% 0 in 0 W/m2
02:09 62.8 °F 55 °F 30.1 in Calm   1 mph 76% 0 in 0 W/m2
02:14 62.4 °F 54.7 °F 30.1 in SSE 0.9 mph 1 mph 76% 0 in 0 W/m2
02:19 62.2 °F 54.9 °F 30.1 in SSE 0.9 mph 2 mph 77% 0 in 0 W/m2
02:24 62.2 °F 54.9 °F 30.1 in Calm     77% 0 in 0 W/m2
02:29 62.1 °F 55 °F 30.1 in Calm     78% 0 in 0 W/m2
02:34 61.9 °F 54.9 °F 30.1 in Calm     78% 0 in 0 W/m2
02:39 61.7 °F 54.9 °F 30.1 in Calm   1 mph 78% 0 in 0 W/m2
02:44 61.5 °F 54.7 °F 30.1 in SSE 0.9 mph 1 mph 78% 0 in 0 W/m2
02:49 61.3 °F 54.5 °F 30.1 in Calm   2 mph 78% 0 in 0 W/m2
02:54 61.3 °F 54.5 °F 30.1 in Calm     78% 0 in 0 W/m2
02:59 61.2 °F 54.3 °F 30.1 in Calm   2 mph 78% 0 in 0 W/m2
03:09 61 °F 54.1 °F 30.1 in Calm     78% 0 in 0 W/m2
03:14 60.8 °F 54.3 °F 30.1 in Calm   1 mph 79% 0 in 0 W/m2
03:24 60.6 °F 54.1 °F 30.1 in Calm   1 mph 79% 0 in 0 W/m2
03:29 60.6 °F 54.1 °F 30.1 in Calm     79% 0 in 0 W/m2
03:34 60.4 °F 54 °F 30.1 in SSE 2 mph 2 mph 79% 0 in 0 W/m2
03:39 60.4 °F 54.3 °F 30.1 in SSE 0.9 mph 1 mph 80% 0 in 0 W/m2
03:44 60.3 °F 54.1 °F 30.1 in Calm   2 mph 80% 0 in 0 W/m2
03:49 60.1 °F 53.6 °F 30.1 in Calm   1 mph 79% 0 in 0 W/m2
03:54 60.1 °F 54 °F 30.1 in Calm   2 mph 80% 0 in 0 W/m2
03:59 60.3 °F 53.8 °F 30.1 in Calm   2 mph 79% 0 in 0 W/m2
04:04 60.3 °F 53.8 °F 30.1 in SSE 0.9 mph 2 mph 79% 0 in 0 W/m2
04:09 60.3 °F 53.8 °F 30.1 in Calm   1 mph 79% 0 in 0 W/m2
04:20 60.1 °F 53.6 °F 30.1 in Calm     79% 0 in 0 W/m2
04:25 59.9 °F 53.4 °F 30.1 in Calm     79% 0 in 0 W/m2
04:30 59.7 °F 53.2 °F 30.1 in Calm   1 mph 79% 0 in 0 W/m2
04:35 59.5 °F 53.4 °F 30.1 in Calm     80% 0 in 0 W/m2
04:40 59.4 °F 53.2 °F 30.1 in Calm     80% 0 in 0 W/m2
04:45 59.4 °F 53.2 °F 30.1 in SSE 0.9 mph 2 mph 80% 0 in 0 W/m2
04:50 59.4 °F 53.2 °F 30.1 in Calm     80% 0 in 0 W/m2
04:55 59.2 °F 53.1 °F 30.1 in SSE 0.9 mph 1 mph 80% 0 in 0 W/m2
05:00 59.4 °F 52.9 °F 30.1 in SSE 0.9 mph 2 mph 79% 0 in 0 W/m2
05:05 59.4 °F 52.9 °F 30.1 in SE 2 mph 3 mph 79% 0 in 0 W/m2
05:10 59.5 °F 53.4 °F 30.1 in Calm   1 mph 80% 0 in 0 W/m2
05:15 59.5 °F 53.4 °F 30.1 in SE 3 mph 3 mph 80% 0 in 0 W/m2
05:20 59.5 °F 53.1 °F 30.1 in Calm     79% 0 in 0 W/m2
05:25 59.4 °F 52.9 °F 30.1 in Calm     79% 0 in 0 W/m2
05:30 59.4 °F 53.2 °F 30.1 in Calm   3 mph 80% 0 in 0 W/m2
05:35 59.4 °F 53.2 °F 30.1 in Calm   1 mph 80% 0 in 5 W/m2
05:40 59.4 °F 52.9 °F 30.1 in SE 0.9 mph 2 mph 79% 0 in 7 W/m2
05:45 59.5 °F 53.1 °F 30.1 in Calm   2 mph 79% 0 in 9 W/m2
05:50 59.7 °F 52.9 °F 30.1 in ESE 0.9 mph 1 mph 78% 0 in 11 W/m2
05:55 59.9 °F 53.1 °F 30.1 in Calm   1 mph 78% 0 in 12 W/m2
06:00 60.1 °F 53.2 °F 30.1 in Calm   2 mph 78% 0 in 14 W/m2
06:05 60.3 °F 53.4 °F 30.1 in Calm     78% 0 in 16 W/m2
06:10 60.3 °F 53.4 °F 30.1 in Calm   1 mph 78% 0 in 18 W/m2
06:15 60.4 °F 53.2 °F 30.1 in Calm   2 mph 77% 0 in 21 W/m2
06:20 60.6 °F 53.4 °F 30.1 in SSE 0.9 mph 1 mph 77% 0 in 21 W/m2
06:25 61 °F 53.4 °F 30.1 in Calm   5 mph 76% 0 in 23 W/m2
06:30 61.2 °F 53.6 °F 30.1 in Calm   1 mph 76% 0 in 25 W/m2
06:40 61.5 °F 53.2 °F 30.1 in Calm   1 mph 74% 0 in 28 W/m2
06:45 61.7 °F 53.8 °F 30.1 in East 0.9 mph 1 mph 75% 0 in 28 W/m2
06:50 61.9 °F 53.8 °F 30.1 in East 0.9 mph 2 mph 75% 0 in 30 W/m2
06:55 61.9 °F 53.4 °F 30.1 in Calm     74% 0 in 32 W/m2
07:00 62.1 °F 53.2 °F 30.1 in Calm     73% 0 in 32 W/m2
07:05 62.2 °F 53.1 °F 30.1 in ENE 0.9 mph 2 mph 72% 0 in 33 W/m2
07:10 62.8 °F 53.6 °F 30.1 in Calm   2 mph 72% 0 in 33 W/m2
07:15 63 °F 53.4 °F 30.1 in ENE 2 mph 2 mph 71% 0 in 35 W/m2
07:20 63 °F 53.4 °F 30.1 in Calm     71% 0 in 35 W/m2
07:25 63.1 °F 54 °F 30.1 in Calm   2 mph 72% 0 in 37 W/m2
07:30 63.3 °F 53.8 °F 30.1 in East 0.9 mph 1 mph 71% 0 in 37 W/m2
07:35 63.5 °F 54 °F 30.1 in East 0.9 mph 1 mph 71% 0 in 58 W/m2
07:40 63.7 °F 54.5 °F 30.1 in Calm     72% 0 in 169 W/m2
07:45 64 °F 54.1 °F 30.1 in Calm   1 mph 70% 0 in 239 W/m2
07:50 64.6 °F 54.5 °F 30.1 in Calm     70% 0 in 251 W/m2
07:55 65.1 °F 55 °F 30.1 in Calm     70% 0 in 264 W/m2
08:00 66 °F 55.2 °F 30.1 in Calm   1 mph 68% 0 in 278 W/m2
08:05 66.9 °F 55.6 °F 30.1 in NNW 2 mph 4 mph 67% 0 in 288 W/m2
08:10 67.8 °F 55.6 °F 30.1 in ESE 2 mph 4 mph 65% 0 in 243 W/m2
08:15 68.4 °F 55.8 °F 30.1 in ENE 2 mph 3 mph 64% 0 in 95 W/m2
08:20 68.9 °F 55.8 °F 30.1 in ENE 0.9 mph 4 mph 63% 0 in 49 W/m2
08:25 69.4 °F 55.9 °F 30.1 in NE 2 mph 5 mph 62% 0 in 49 W/m2
08:30 70 °F 55.9 °F 30.1 in NE 4 mph 5 mph 61% 0 in 49 W/m2
08:35 70.3 °F 56.3 °F 30.1 in NE 2 mph 4 mph 61% 0 in 47 W/m2
08:40 70.7 °F 56.1 °F 30.1 in ESE 2.9 mph 8 mph 60% 0 in 47 W/m2
08:45 71.1 °F 55.9 °F 30.1 in ENE 2.9 mph 9 mph 59% 0 in 49 W/m2
08:50 71.2 °F 56.7 °F 30.1 in ESE 2 mph 6 mph 60% 0 in 49 W/m2
08:55 71.2 °F 56.7 °F 30.1 in NE 0.9 mph 3 mph 60% 0 in 47 W/m2
09:00 71.4 °F 56.8 °F 30.1 in East 0.9 mph 3 mph 60% 0 in 83 W/m2
09:05 71.4 °F 56.3 °F 30.1 in East 4 mph 5 mph 59% 0 in 285 W/m2
09:10 71.8 °F 57.2 °F 30.1 in East 2 mph 2 mph 60% 0 in 369 W/m2
09:15 72.1 °F 57 °F 30.1 in ENE 2 mph 4 mph 59% 0 in 466 W/m2
09:20 72.5 °F 56.8 °F 30.1 in ENE 0.9 mph 7 mph 58% 0 in 489 W/m2
09:25 72.7 °F 57 °F 30.1 in ENE 4.9 mph 9 mph 58% 0 in 501 W/m2
09:30 72.9 °F 57.2 °F 30.1 in ESE 2.9 mph 4 mph 58% 0 in 515 W/m2
09:35 72.9 °F 57.2 °F 30.1 in NE 7 mph 7 mph 58% 0 in 527 W/m2
09:40 73.2 °F 58.1 °F 30.1 in NE 2.9 mph 5 mph 59% 0 in 538 W/m2
09:45 73.9 °F 58.6 °F 30.1 in NE 6.9 mph 7 mph 59% 0 in 554 W/m2
09:50 74.5 °F 57.7 °F 30.1 in NNE 4 mph 7 mph 56% 0 in 563 W/m2
09:55 74.8 °F 57.6 °F 30.1 in ENE 2 mph 6 mph 55% 0 in 578 W/m2
10:00 75.6 °F 56.7 °F 30.1 in ENE 2.9 mph 10 mph 52% 0 in 594 W/m2
10:05 75.7 °F 57.4 °F 30.1 in East 2 mph 3 mph 53% 0 in 605 W/m2
10:10 75.9 °F 57 °F 30.1 in East 0.9 mph 10 mph 52% 0 in 582 W/m2
10:15 76.5 °F 57 °F 30.1 in ESE 4 mph 7 mph 51% 0 in 65 W/m2
10:20 76.5 °F 57 °F 30.1 in NE 2.9 mph 7 mph 51% 0 in 640 W/m2
10:25 76.6 °F 56.7 °F 30.1 in SSE 2.9 mph 12 mph 50% 0 in 652 W/m2
10:30 76.6 °F 56.7 °F 30.1 in NE 2 mph 7 mph 50% 0 in 663 W/m2
10:35 77 °F 57 °F 30.1 in ESE 2 mph 12 mph 50% 0 in 675 W/m2
10:40 77.4 °F 57.2 °F 30.1 in East 0.9 mph 7 mph 50% 0 in 686 W/m2
10:45 77.5 °F 56.8 °F 30.1 in NE 2.9 mph 5 mph 49% 0 in 700 W/m2
10:50 77.5 °F 56.8 °F 30.1 in ENE 4.9 mph 8 mph 49% 0 in 710 W/m2
10:55 77.9 °F 56.7 °F 30.1 in NE 4.9 mph 10 mph 48% 0 in 721 W/m2
11:00 78.3 °F 56.3 °F 30.1 in NE 2 mph 9 mph 47% 0 in 729 W/m2
11:05 78.3 °F 56.3 °F 30.1 in East 4.9 mph 12 mph 47% 0 in 738 W/m2
11:10 78.6 °F 57.2 °F 30.1 in South 2 mph 7 mph 48% 0 in 751 W/m2
11:15 79.2 °F 57.2 °F 30.1 in NE 2.9 mph 5 mph 47% 0 in 758 W/m2
11:20 79.3 °F 56.8 °F 30.1 in SSW 0.9 mph 5 mph 46% 0 in 766 W/m2
11:25 79.5 °F 56.8 °F 30.1 in East 4 mph 5 mph 46% 0 in 779 W/m2
11:30 79.7 °F 56.5 °F 30.1 in ENE 4 mph 7 mph 45% 0 in 784 W/m2
11:35 79.9 °F 55.9 °F 30.1 in ESE 6 mph 10 mph 44% 0 in 788 W/m2
11:40 79.9 °F 54.7 °F 30.1 in ESE 0.9 mph 8 mph 42% 0 in 803 W/m2
11:45 80.1 °F 55.6 °F 30.1 in East 2 mph 5 mph 43% 0 in 812 W/m2
11:50 80.2 °F 55.8 °F 30.1 in ENE 2.9 mph 7 mph 43% 0 in 816 W/m2
11:55 80.8 °F 56.1 °F 30.1 in ESE 4 mph 4 mph 43% 0 in 824 W/m2
12:00 81.1 °F 56.5 °F 30.1 in East 6.9 mph 7 mph 43% 0 in 835 W/m2
12:05 81.5 °F 56.1 °F 30.1 in ESE 4 mph 9 mph 42% 0 in 837 W/m2
12:10 81.9 °F 57.2 °F 30.1 in ENE 8.1 mph 8 mph 43% 0 in 849 W/m2
12:15 82 °F 54 °F 30.1 in SSE 4 mph 10 mph 38% 0 in 860 W/m2
12:20 82 °F 54.7 °F 30.1 in NE 2 mph 5 mph 39% 0 in 865 W/m2
12:25 81.7 °F 55 °F 30.1 in SE 2 mph 15 mph 40% 0 in 865 W/m2
12:30 81.9 °F 55.2 °F 30.1 in SE 2 mph 10 mph 40% 0 in 868 W/m2
12:35 82 °F 55.9 °F 30.1 in East 2 mph 8 mph 41% 0 in 870 W/m2
12:41 82 °F 55.4 °F 30.1 in ENE 2.9 mph 3 mph 40% 0 in 872 W/m2
12:46 82.2 °F 56.1 °F 30.1 in NE 2 mph 6 mph 41% 0 in 877 W/m2
12:51 82.4 °F 55 °F 30.1 in North 4 mph 11 mph 39% 0 in 886 W/m2
12:56 82.4 °F 54.3 °F 30.1 in East 0.9 mph 7 mph 38% 0 in 889 W/m2
13:01 82.4 °F 54.3 °F 30.1 in North 2.9 mph 12 mph 38% 0 in 893 W/m2
13:06 82.6 °F 55.8 °F 30.1 in East 4 mph 4 mph 40% 0 in 888 W/m2
13:11 82.8 °F 55.9 °F 30.1 in SE 2.9 mph 11 mph 40% 0 in 860 W/m2
13:16 82.8 °F 55.9 °F 30.1 in SE 8.9 mph 11 mph 40% 0 in 867 W/m2
13:21 82.8 °F 55.2 °F 30.1 in NE 2 mph 4 mph 39% 0 in 877 W/m2
13:26 82.9 °F 57.6 °F 30.1 in East 2.9 mph 9 mph 42% 0 in 879 W/m2
13:31 82.9 °F 56.1 °F 30.1 in NE 4 mph 11 mph 40% 0 in 882 W/m2
13:36 83.1 °F 57.6 °F 30.1 in ENE 2 mph 7 mph 42% 0 in 891 W/m2
13:41 83.1 °F 56.3 °F 30.1 in ESE 0.9 mph 11 mph 40% 0 in 905 W/m2
13:46 83.1 °F 57 °F 30.1 in ENE 4.9 mph 8 mph 41% 0 in 904 W/m2
13:51 82.9 °F 56.1 °F 30.1 in ENE 4.9 mph 7 mph 40% 0 in 907 W/m2
13:56 83.1 °F 58.3 °F 30.1 in NE 0.9 mph 9 mph 43% 0 in 904 W/m2
14:01 83.5 °F 57.9 °F 30.1 in ENE 0.9 mph 10 mph 42% 0 in 902 W/m2
14:06 83.7 °F 56.1 °F 30.1 in NNW 0.9 mph 7 mph 39% 0 in 904 W/m2
14:11 83.7 °F 56.8 °F 30.1 in ENE 8.1 mph 12 mph 40% 0 in 900 W/m2
14:16 83.7 °F 57.4 °F 30.1 in North 2.9 mph 9 mph 41% 0 in 900 W/m2
14:21 83.8 °F 57 °F 30.1 in East 2 mph 12 mph 40% 0 in 898 W/m2
14:26 83.8 °F 57 °F 30.1 in NE 2 mph 7 mph 40% 0 in 895 W/m2
14:31 84 °F 57 °F 30.1 in NNW 2.9 mph 10 mph 40% 0 in 891 W/m2
14:36 84.6 °F 56.1 °F 30.1 in NE 6 mph 7 mph 38% 0 in 889 W/m2
14:43 84.6 °F 57.6 °F 30.1 in North 0.9 mph 2 mph 40% 0 in 886 W/m2
14:46 85.3 °F 59 °F 30.1 in ESE 2 mph 6 mph 41% 0 in 888 W/m2
14:51 85.5 °F 56.3 °F 30.1 in NE 2.9 mph 9 mph 37% 0 in 882 W/m2
14:56 85.3 °F 57.6 °F 30.1 in NNE 2.9 mph 3 mph 39% 0 in 870 W/m2
15:01 85.3 °F 57.6 °F 30.1 in ENE 2 mph 5 mph 39% 0 in 868 W/m2
15:06 85.5 °F 57 °F 30.1 in ENE 2.9 mph 5 mph 38% 0 in 872 W/m2
15:11 85.6 °F 57.2 °F 30.1 in ENE 4 mph 7 mph 38% 0 in 861 W/m2
15:16 85.5 °F 57.7 °F 30.1 in East 2.9 mph 10 mph 39% 0 in 858 W/m2
15:21 85.5 °F 56.3 °F 30.1 in East 0.9 mph 4 mph 37% 0 in 846 W/m2
15:27 85.6 °F 57.2 °F 30.1 in ENE 2 mph 10 mph 38% 0 in 847 W/m2
15:32 86.2 °F 56.8 °F 30.1 in East 6 mph 6 mph 37% 0 in 840 W/m2
15:37 86 °F 56.7 °F 30.1 in ENE 2 mph 10 mph 37% 0 in 831 W/m2
15:42 85.8 °F 55.8 °F 30.1 in ENE 6 mph 6 mph 36% 0 in 823 W/m2
15:47 85.6 °F 56.3 °F 30.1 in SE 0.9 mph 3 mph 37% 0 in 810 W/m2
15:52 86.2 °F 56.1 °F 30.1 in ENE 2 mph 2 mph 36% 0 in 810 W/m2
15:57 86.2 °F 54.5 °F 30.1 in NNE 6.9 mph 11 mph 34% 0 in 802 W/m2
16:02 85.8 °F 54.1 °F 30.1 in East 2.9 mph 8 mph 34% 0 in 795 W/m2
16:07 85.6 °F 54 °F 30.1 in SSE 4.9 mph 12 mph 34% 0 in 788 W/m2
16:12 85.8 °F 55.8 °F 30.1 in ENE 2 mph 5 mph 36% 0 in 773 W/m2
16:17 86.2 °F 55.4 °F 30.1 in NE 6.9 mph 11 mph 35% 0 in 765 W/m2
16:22 86.2 °F 54.5 °F 30.1 in ENE 6 mph 14 mph 34% 0 in 754 W/m2
16:28 86 °F 55.9 °F 30.1 in SE 0.9 mph 3 mph 36% 0 in 749 W/m2
16:33 86.2 °F 54.5 °F 30.1 in ENE 2 mph 12 mph 34% 0 in 731 W/m2
16:38 86 °F 54.3 °F 30.1 in East 8.9 mph 11 mph 34% 0 in 722 W/m2
16:43 86 °F 55.2 °F 30.1 in ENE 4.9 mph 5 mph 35% 0 in 715 W/m2
16:48 86.2 °F 54.5 °F 30.1 in NE 2.9 mph 8 mph 34% 0 in 703 W/m2
16:53 86.2 °F 55.4 °F 30.1 in North 6 mph 6 mph 35% 0 in 691 W/m2
16:58 86.4 °F 57 °F 30.1 in NE 6 mph 8 mph 37% 0 in 680 W/m2
17:03 86.5 °F 56.5 °F 30.1 in NE 0.9 mph 4 mph 36% 0 in 673 W/m2
17:08 86.5 °F 55.6 °F 30.1 in Calm   3 mph 35% 0 in 659 W/m2
17:13 86.7 °F 56.7 °F 30.1 in ENE 4.9 mph 7 mph 36% 0 in 645 W/m2
17:18 86.7 °F 55.8 °F 30.1 in NE 6.9 mph 7 mph 35% 0 in 636 W/m2
17:23 86.7 °F 55.8 °F 30.1 in NNW 6 mph 8 mph 35% 0 in 621 W/m2
17:28 86.5 °F 56.5 °F 30.1 in ESE 2 mph 10 mph 36% 0 in 608 W/m2
17:34 86.5 °F 56.5 °F 30.1 in NE 4.9 mph 10 mph 36% 0 in 601 W/m2
17:39 86.2 °F 55.4 °F 30.1 in East 2.9 mph 7 mph 35% 0 in 589 W/m2
17:44 86.2 °F 56.1 °F 30 in East 2.9 mph 4 mph 36% 0 in 582 W/m2
17:49 86.5 °F 54.9 °F 30 in NE 12.1 mph 12 mph 34% 0 in 566 W/m2
17:54 86.5 °F 55.6 °F 30 in NNE 0.9 mph 2 mph 35% 0 in 547 W/m2
18:00 86.7 °F 54.1 °F 30 in SE 2.9 mph 12 mph 33% 0 in 536 W/m2
18:05 86.5 °F 54.9 °F 30 in ENE 4.9 mph 5 mph 34% 0 in 520 W/m2
18:10 86.7 °F 55.8 °F 30 in SSW 0.9 mph 9 mph 35% 0 in 508 W/m2
18:15 86.9 °F 55.2 °F 30 in ENE 2.9 mph 7 mph 34% 0 in 490 W/m2
18:20 86.7 °F 53.4 °F 30 in ENE 0.9 mph 7 mph 32% 0 in 462 W/m2
18:25 86.4 °F 53.8 °F 30 in ENE 2.9 mph 8 mph 33% 0 in 431 W/m2
18:30 86.2 °F 53.8 °F 30 in NE 0.9 mph 12 mph 33% 0 in 390 W/m2
18:35 86.2 °F 54.5 °F 30 in SE 4 mph 9 mph 34% 0 in 357 W/m2
18:40 86 °F 53.6 °F 30 in East 6 mph 12 mph 33% 0 in 339 W/m2
18:45 86.2 °F 52.9 °F 30 in ENE 4.9 mph 8 mph 32% 0 in 318 W/m2
18:50 85.8 °F 53.4 °F 30 in NNE 4.9 mph 9 mph 33% 0 in 288 W/m2
18:55 85.6 °F 52.3 °F 30 in NNE 0.9 mph 3 mph 32% 0 in 269 W/m2
19:00 85.6 °F 54 °F 30 in ESE 4 mph 4 mph 34% 0 in 269 W/m2
19:06 85.6 °F 52.3 °F 30 in East 0.9 mph 8 mph 32% 0 in 290 W/m2
19:11 85.6 °F 53.2 °F 30 in Calm   3 mph 33% 0 in 311 W/m2
19:16 85.8 °F 52.5 °F 30 in NE 4.9 mph 7 mph 32% 0 in 320 W/m2
19:21 85.5 °F 52.2 °F 30 in ESE 2.9 mph 5 mph 32% 0 in 297 W/m2
19:26 85.3 °F 52.2 °F 30 in ESE 2.9 mph 8 mph 32% 0 in 299 W/m2
19:31 85.3 °F 52.2 °F 30 in NE 4 mph 4 mph 32% 0 in 281 W/m2
19:36 85.3 °F 52.2 °F 30 in ENE 4.9 mph 5 mph 32% 0 in 251 W/m2
19:41 85.3 °F 52.2 °F 30 in East 4 mph 7 mph 32% 0 in 209 W/m2
19:46 84.7 °F 51.6 °F 30 in NNW 0.9 mph 8 mph 32% 0 in 183 W/m2
19:51 84.4 °F 51.3 °F 30 in ENE 2 mph 5 mph 32% 0 in 181 W/m2
19:56 84 °F 50.9 °F 30 in SSE 2.9 mph 4 mph 32% 0 in 185 W/m2
20:01 84 °F 50.9 °F 30 in ENE 2 mph 8 mph 32% 0 in 174 W/m2
20:06 83.8 °F 50.9 °F 30 in ESE 0.9 mph 5 mph 32% 0 in 163 W/m2
20:11 83.7 °F 51.4 °F 30 in ESE 4 mph 8 mph 33% 0 in 155 W/m2
20:16 83.5 °F 50.5 °F 30 in East 2.9 mph 4 mph 32% 0 in 142 W/m2
20:21 83.3 °F 51.3 °F 30 in SE 4.9 mph 6 mph 33% 0 in 130 W/m2
20:26 83.1 °F 52.7 °F 30 in ENE 8.1 mph 8 mph 35% 0 in 120 W/m2
20:31 82.8 °F 53.1 °F 30 in ESE 2.9 mph 3 mph 36% 0 in 98 W/m2
20:36 82.2 °F 51.8 °F 30 in ESE 2 mph 4 mph 35% 0 in 83 W/m2
20:41 82 °F 51.6 °F 30 in Calm   3 mph 35% 0 in 76 W/m2
20:46 82 °F 52.5 °F 30 in ENE 4 mph 6 mph 36% 0 in 74 W/m2
20:51 81.7 °F 51.4 °F 30 in ENE 2 mph 7 mph 35% 0 in 65 W/m2
20:56 81.1 °F 51.6 °F 30 in ENE 2 mph 7 mph 36% 0 in 58 W/m2
21:01 81 °F 52.9 °F 30 in East 0.9 mph 3 mph 38% 0 in 49 W/m2
21:06 80.4 °F 51.8 °F 30 in SE 7 mph 7 mph 37% 0 in 40 W/m2
21:11 80.1 °F 52.9 °F 30 in ESE 2.9 mph 3 mph 39% 0 in 33 W/m2
21:21 79 °F 52.5 °F 30 in Calm   2 mph 40% 0 in 16 W/m2
21:26 78.4 °F 52.2 °F 30 in SE 2.9 mph 8 mph 40% 0 in 14 W/m2
21:31 77.9 °F 52.3 °F 30 in Calm   4 mph 41% 0 in 11 W/m2
21:36 77.4 °F 53.8 °F 30 in SSW 0.9 mph 2 mph 44% 0 in 9 W/m2
21:41 76.8 °F 52.7 °F 30 in ESE 0.9 mph 2 mph 43% 0 in 7 W/m2
21:46 76.3 °F 53.4 °F 30 in Calm   2 mph 45% 0 in 5 W/m2
21:51 75.7 °F 53.4 °F 30 in Calm   1 mph 46% 0 in 0 W/m2
21:56 75.2 °F 53.1 °F 30 in East 0.9 mph 4 mph 46% 0 in 0 W/m2
22:01 74.8 °F 53.8 °F 30 in Calm   1 mph 48% 0 in 0 W/m2
22:06 74.3 °F 54 °F 30 in Calm   2 mph 49% 0 in 0 W/m2
22:11 73.8 °F 54.5 °F 30 in Calm   1 mph 51% 0 in 0 W/m2
22:16 72.9 °F 54.1 °F 30 in SE 0.9 mph 1 mph 52% 0 in 0 W/m2
22:21 72.3 °F 54.1 °F 30.1 in Calm   2 mph 53% 0 in 0 W/m2
22:26 71.8 °F 53.8 °F 30.1 in SE 2 mph 2 mph 53% 0 in 0 W/m2
22:31 71.2 °F 53.8 °F 30.1 in Calm     54% 0 in 0 W/m2
22:36 70.9 °F 53.4 °F 30.1 in SE 0.9 mph 1 mph 54% 0 in 0 W/m2
22:41 70.3 °F 53.4 °F 30.1 in Calm   2 mph 55% 0 in 0 W/m2
22:46 70 °F 53.6 °F 30.1 in SE 0.9 mph 1 mph 56% 0 in 0 W/m2
22:51 69.6 °F 53.8 °F 30.1 in SE 0.9 mph 2 mph 57% 0 in 0 W/m2
22:56 69.3 °F 53.8 °F 30.1 in SE 0.9 mph 2 mph 58% 0 in 0 W/m2
23:01 68.9 °F 53.1 °F 30.1 in SE 0.9 mph 2 mph 57% 0 in 0 W/m2
23:06 68.7 °F 53.8 °F 30.1 in SE 0.9 mph 2 mph 59% 0 in 0 W/m2
23:11 68.5 °F 53.6 °F 30.1 in SE 0.9 mph 1 mph 59% 0 in 0 W/m2
23:16 68.2 °F 52.9 °F 30.1 in Calm   2 mph 58% 0 in 0 W/m2
23:21 67.8 °F 52.9 °F 30.1 in Calm   1 mph 59% 0 in 0 W/m2
23:26 67.6 °F 52.9 °F 30.1 in Calm     59% 0 in 0 W/m2
23:31 67.3 °F 53.4 °F 30.1 in Calm   1 mph 61% 0 in 0 W/m2
23:36 66.9 °F 53.1 °F 30.1 in Calm     61% 0 in 0 W/m2
23:41 66.7 °F 52.9 °F 30.1 in Calm     61% 0 in 0 W/m2
23:46 66.4 °F 52.9 °F 30.1 in Calm     62% 0 in 0 W/m2
23:51 66 °F 52.7 °F 30.1 in Calm     62% 0 in 0 W/m2
23:56 65.7 °F 52.7 °F 30.1 in Calm     63% 0 in 0 W/m2
Juneau County Weather
Compliments of Weather Underground - 4 mb